Wind_Speed
45 45 45 45 46 47 47 48 49 48 47 47 48 48 48 48 47 47 48 48 48 47 47 48 48 49 50 50 50 50 48 47 47 45 44 42 41 41
44 44 45 45 45 47 47 47 47 47 47 46 47 46 46 47 46 46 46 47 49 47 48 47 46 48 49 49 49 49 47 47 46 44 43 42 40 40
42 43 42 43 44 44 45 45 46 46 46 45 44 44 44 44 45 45 45 46 47 48 47 46 46 46 47 47 46 47 47 46 45 44 42 42 40 39
41 41 42 42 42 42 44 44 44 45 45 43 42 42 42 43 44 45 44 45 45 45 44 44 43 43 43 43 43 44 45 45 44 43 42 41 40 39
39 40 40 40 41 41 42 43 43 44 43 41 40 40 40 42 43 44 44 42 41 42 42 42 42 41 41 41 40 40 41 41 41 40 40 39 38 38
40 39 40 40 40 40 40 41 41 42 42 41 41 40 39 39 40 41 41 41 40 40 40 40 39 38 37 37 37 37 38 39 39 38 37 37 37 37
40 40 40 39 39 39 39 39 40 40 40 40 40 39 38 37 38 38 39 39 38 38 38 37 36 35 34 35 36 36 36 37 37 36 36 35 36 36
39 39 40 39 38 38 38 38 38 38 38 38 38 37 36 36 36 36 36 36 36 36 36 34 32 31 32 32 34 35 35 35 34 34 34 35 34 34
37 37 38 37 36 36 35 35 34 34 34 35 35 35 35 35 34 33 33 33 34 34 34 33 31 29 30 29 30 31 31 32 32 33 33 34 33 33
35 35 35 33 32 33 32 31 31 31 32 33 33 33 34 34 33 33 32 32 32 31 31 31 30 29 28 28 28 29 30 29 29 31 32 32 32 32
32 32 32 32 32 31 30 30 30 31 31 31 32 32 32 33 33 33 31 30 29 29 29 29 29 29 28 28 28 29 29 29 29 30 31 32 32 32
29 30 30 30 30 30 30 29 29 28 28 29 30 30 30 30 31 30 29 28 28 28 28 28 28 28 28 28 28 28 28 28 29 29 29 30 29 30
27 27 28 28 28 27 27 27 27 27 27 27 27 28 27 27 26 26 26 26 26 26 26 26 25 25 25 26 27 27 27 27 28 28 28 28 29 29
23 23 23 25 25 25 25 25 25 25 25 25 24 24 24 24 24 23 23 24 23 23 23 24 23 23 23 24 25 26 26 26 25 25 25 25 26 26
20 20 21 22 22 23 23 23 23 23 22 22 22 22 22 22 21 22 22 22 22 22 22 22 22 21 21 21 22 22 23 23 24 24 23 23 23 24
19 19 20 20 21 22 22 22 21 20 19 19 20 20 20 20 21 21 21 21 20 20 21 20 20 19 20 20 20 20 21 21 22 23 23 23 22 22
18 19 19 20 20 21 20 20 19 19 19 18 18 18 19 19 19 20 19 19 18 18 18 18 18 18 18 18 18 18 19 19 20 20 21 21 20 19
17 17 18 19 19 19 19 18 18 17 17 16 16 16 17 17 17 17 17 16 16 17 17 17 17 17 17 16 16 17 17 17 17 17 18 19 18 18
16 16 16 16 16 15 15 15 15 15 15 15 14 14 14 14 15 15 15 15 15 15 15 16 16 17 17 16 15 15 15 15 16 16 17 17 17 17
15 14 15 15 15 14 14 13 13 12 12 12 12 12 12 12 12 12 13 13 13 14 14 15 15 15 15 14 13 13 14 14 15 15 15 16 16 16
13 13 13 13 12 12 11 10 9 9 9 9 9 10 10 10 10 10 10 10 11 12 13 13 13 13 12 13 13 12 12 13 13 13 13 14 15 15
11 11 11 11 11 11 10 9 9 8 8 8 8 8 8 9 9 8 8 8 9 9 10 10 10 10 10 11 11 11 11 11 12 12 11 12 13 13
10 10 11 11 11 10 9 9 8 8 7 8 8 8 8 8 7 7 7 7 7 7 7 7 7 8 9 10 10 10 10 10 10 10 10 10 10 10
Wind_Direction
267 266 267 268 267 268 268 269 269 269 269 269 269 269 268 268 268 266 265 266 267 269 270 270 270 269 268 266 265 265 265 265 265 265 266 266 267 268
268 268 267 268 268 269 270 270 271 271 270 269 269 269 268 268 267 266 265 267 267 268 270 271 271 270 269 266 265 264 263 262 262 262 264 265 265 266
269 269 269 269 269 269 269 269 270 271 270 269 268 268 267 266 266 267 267 268 268 268 269 271 272 271 270 268 265 262 260 260 260 260 262 262 262 264
269 269 269 269 269 270 270 270 270 270 270 268 267 267 267 267 268 268 269 269 268 269 269 271 270 269 268 266 264 261 259 258 258 259 259 260 261 263
268 269 269 270 269 270 271 270 269 269 269 267 266 266 268 268 268 269 269 268 268 269 268 268 269 268 268 267 264 261 258 256 256 256 257 258 259 261
268 269 271 271 270 270 270 269 268 267 267 266 266 267 269 269 269 268 268 268 268 268 267 267 267 266 266 265 263 259 258 255 255 255 255 257 258 259
268 269 271 272 271 271 271 270 268 267 267 267 267 268 268 269 269 269 269 269 268 267 266 266 265 264 264 262 260 257 256 256 255 254 254 255 256 258
270 270 270 271 271 271 270 269 268 267 266 267 267 268 268 270 270 271 271 269 268 266 266 264 265 266 263 261 258 256 256 255 253 253 253 253 255 258
271 269 270 269 270 270 268 267 266 267 267 267 267 268 268 269 270 271 269 268 268 268 266 263 264 264 261 260 256 255 257 255 251 251 252 253 256 258
271 270 269 269 269 268 265 265 266 268 269 269 268 268 267 267 268 269 268 268 268 266 264 262 262 261 259 257 256 258 256 254 252 252 251 254 257 258
271 269 268 267 266 265 265 266 267 270 271 270 270 269 267 266 265 265 266 265 265 264 263 261 261 260 258 257 255 255 253 253 251 253 253 254 257 258
269 267 265 265 264 264 264 265 268 270 272 273 271 270 266 264 263 263 263 263 264 263 262 261 260 260 257 255 255 255 254 253 252 254 255 256 257 258
268 266 264 264 263 262 263 265 269 271 271 272 271 269 266 263 261 260 260 262 263 262 261 260 258 258 256 253 252 253 252 252 254 256 257 259 260 259
266 265 263 261 262 262 264 267 270 272 272 271 269 265 263 262 261 260 260 261 260 258 258 258 258 257 256 255 254 253 252 254 256 258 258 259 260 259
265 266 265 265 265 266 267 269 270 271 272 271 268 263 261 261 259 258 259 258 255 254 255 255 255 255 254 254 255 256 257 257 258 258 257 258 258 259
265 265 267 268 268 268 268 268 268 269 267 267 264 260 258 258 258 258 258 256 254 252 252 250 250 252 253 254 253 252 253 253 255 257 257 256 254 255
265 265 267 269 269 269 268 267 265 264 264 263 261 260 259 258 260 261 259 256 252 250 248 246 246 248 251 250 250 249 250 253 255 256 255 254 252 252
268 266 266 267 268 269 267 267 266 263 261 259 258 262 261 261 261 259 257 254 251 249 246 245 247 247 248 247 248 248 249 250 251 253 255 255 254 253
267 267 267 266 267 266 265 263 261 259 259 258 258 260 261 260 258 256 252 250 250 248 246 248 248 249 248 246 244 245 246 247 249 249 252 251 250 251
268 267 267 266 266 263 259 256 256 258 259 255 252 252 253 255 256 255 252 249 247 246 247 248 248 248 245 241 242 244 248 249 248 247 246 247 247 247
269 265 267 266 263 256 251 249 249 249 248 244 245 247 250 252 254 254 250 246 247 247 246 245 246 245 241 239 239 241 244 247 244 242 245 245 243 243
273 268 267 263 257 250 246 244 241 239 241 243 244 245 246 249 250 249 247 245 244 242 239 240 242 240 240 239 237 238 239 242 244 243 244 242 242 244
277 268 263 259 250 242 237 234 232 232 237 240 243 245 245 244 243 243 238 236 237 234 228 226 227 232 234 230 230 232 233 238 241 237 239 237 240 243
Height
5610 5610 5610 5609 5609 5608 5608 5607 5607 5609 5611 5611 5610 5609 5607 5607 5607 5607 5609 5609 5610 5610 5610 5609 5608 5607 5607 5608 5609 5610 5611 5613 5614 5616 5617 5618 5619 5620
5598 5598 5598 5598 5597 5597 5596 5595 5594 5595 5596 5598 5596 5596 5595 5594 5594 5595 5595 5596 5596 5596 5596 5595 5594 5594 5593 5594 5595 5596 5598 5600 5601 5603 5605 5607 5608 5609
5587 5587 5587 5586 5586 5585 5584 5583 5583 5582 5582 5584 5583 5583 5583 5583 5583 5583 5583 5583 5583 5583 5582 5581 5581 5580 5580 5580 5581 5582 5584 5586 5589 5592 5593 5596 5597 5599
5576 5576 5575 5575 5574 5573 5572 5572 5571 5570 5570 5571 5572 5572 5572 5571 5571 5572 5571 5571 5570 5570 5569 5568 5567 5567 5567 5567 5568 5569 5571 5574 5577 5580 5583 5586 5588 5589
5565 5565 5564 5563 5563 5562 5561 5560 5559 5559 5559 5560 5561 5561 5561 5561 5560 5560 5560 5559 5558 5558 5557 5556 5556 5555 5555 5556 5557 5558 5560 5563 5566 5569 5572 5575 5577 5579
5554 5554 5553 5552 5552 5551 5550 5549 5548 5548 5549 5549 5550 5551 5550 5550 5549 5549 5548 5547 5547 5546 5545 5545 5545 5544 5545 5546 5547 5548 5550 5552 5555 5559 5562 5565 5567 5569
5543 5542 5542 5541 5541 5540 5539 5538 5538 5538 5539 5539 5540 5540 5540 5540 5539 5538 5538 5537 5536 5535 5535 5535 5535 5536 5536 5536 5537 5539 5540 5543 5546 5549 5553 5555 5558 5560
5531 5531 5531 5530 5530 5529 5528 5528 5528 5528 5529 5530 5530 5530 5531 5530 5529 5528 5528 5528 5528 5528 5527 5527 5527 5527 5528 5528 5529 5530 5532 5535 5538 5541 5544 5546 5549 5551
5520 5520 5520 5520 5520 5519 5519 5519 5519 5519 5519 5520 5521 5521 5521 5521 5521 5520 5519 5519 5519 5519 5518 5519 5519 5519 5520 5520 5521 5523 5524 5527 5529 5532 5535 5538 5541 5543
5510 5509 5509 5510 5510 5510 5510 5511 5511 5511 5511 5511 5512 5512 5512 5511 5511 5511 5510 5510 5510 5510 5510 5511 5511 5512 5513 5514 5515 5516 5518 5520 5522 5525 5528 5530 5532 5534
5500 5500 5500 5501 5501 5501 5502 5503 5503 5503 5503 5503 5503 5502 5502 5502 5502 5502 5502 5501 5502 5502 5502 5504 5504 5505 5506 5507 5508 5509 5511 5513 5516 5517 5520 5522 5524 5526
5492 5492 5492 5493 5493 5493 5494 5495 5495 5495 5495 5495 5494 5493 5493 5494 5494 5494 5494 5494 5495 5496 5496 5497 5498 5498 5499 5500 5501 5503 5504 5506 5508 5510 5512 5514 5516 5518
5485 5485 5485 5485 5485 5485 5486 5487 5487 5487 5487 5486 5486 5485 5485 5486 5486 5486 5486 5487 5488 5489 5489 5490 5491 5491 5492 5494 5495 5496 5498 5499 5501 5502 5504 5506 5508 5510
5478 5478 5478 5478 5478 5478 5479 5479 5479 5479 5479 5478 5478 5478 5478 5478 5479 5479 5480 5481 5481 5482 5483 5484 5485 5485 5486 5487 5489 5490 5491 5492 5494 5496 5497 5498 5500 5502
5472 5472 5472 5472 5472 5472 5472 5472 5472 5472 5472 5472 5472 5472 5472 5472 5472 5473 5474 5475 5476 5476 5477 5478 5479 5480 5481 5482 5483 5484 5485 5486 5488 5489 5491 5492 5494 5495
5466 5466 5466 5466 5466 5466 5466 5466 5466 5466 5466 5466 5466 5466 5466 5467 5467 5468 5469 5469 5470 5471 5471 5472 5473 5474 5475 5476 5477 5479 5480 5481 5482 5483 5485 5486 5488 5489
5462 5461 5461 5461 5461 5460 5460 5460 5460 5460 5461 5461 5461 5461 5462 5462 5462 5463 5464 5464 5465 5466 5467 5467 5468 5469 5470 5471 5473 5474 5475 5476 5477 5478 5479 5481 5483 5484
5457 5456 5456 5456 5456 5455 5455 5455 5455 5455 5456 5456 5456 5457 5457 5458 5458 5458 5459 5460 5460 5461 5462 5463 5464 5465 5466 5467 5468 5469 5470 5471 5472 5473 5475 5476 5477 5479
5452 5451 5451 5451 5451 5450 5450 5451 5451 5451 5451 5452 5452 5453 5453 5454 5454 5455 5455 5456 5457 5458 5458 5459 5460 5461 5462 5464 5465 5465 5466 5467 5468 5469 5470 5471 5473 5475
5447 5447 5447 5447 5447 5447 5447 5447 5447 5447 5448 5448 5449 5449 5450 5450 5451 5451 5452 5453 5453 5454 5455 5455 5456 5457 5458 5460 5461 5461 5462 5463 5464 5465 5466 5467 5469 5470
5444 5443 5443 5443 5443 5443 5443 5444 5444 5444 5445 5445 5446 5447 5447 5448 5448 5449 5449 5450 5450 5451 5451 5452 5452 5453 5454 5455 5457 5458 5458 5459 5460 5461 5463 5464 5465 5467
5440 5440 5439 5439 5440 5440 5440 5441 5441 5442 5442 5443 5444 5444 5445 5445 5446 5446 5447 5447 5447 5448 5449 5449 5449 5450 5451 5452 5454 5455 5455 5456 5457 5458 5459 5461 5462 5463
5436 5436 5436 5436 5436 5437 5438 5438 5439 5440 5441 5441 5442 5442 5443 5443 5444 5444 5445 5445 5446 5446 5447 5447 5447 5448 5448 5450 5451 5452 5453 5453 5454 5455 5456 5457 5458 5459